#datetime,building,power
2022-01-13T00:00:00,pkn,1.20
2022-01-13T00:02:00,pkn,1.20
2022-01-13T00:03:00,pkn,1.20
2022-01-13T00:05:00,pkn,1.20
2022-01-13T00:06:00,pkn,1.20
2022-01-13T00:08:00,pkn,3.60
2022-01-13T00:10:00,pkn,2.40
2022-01-13T00:12:00,pkn,1.20
2022-01-13T00:14:00,pkn,2.40
2022-01-13T00:16:00,pkn,7.20
2022-01-13T00:18:00,pkn,9.60
2022-01-13T00:20:00,pkn,10.80
2022-01-13T00:21:00,pkn,4.80
2022-01-13T00:23:00,pkn,8.40
2022-01-13T00:25:00,pkn,2.40
2022-01-13T00:28:00,pkn,2.40
2022-01-13T00:29:00,pkn,1.20
2022-01-13T00:31:00,pkn,1.20
2022-01-13T00:32:00,pkn,1.20
2022-01-13T00:33:00,pkn,1.20
2022-01-13T00:35:00,pkn,1.20
2022-01-13T00:36:00,pkn,1.20
2022-01-13T00:38:00,pkn,1.20
2022-01-13T00:41:00,pkn,2.40
2022-01-13T00:44:00,pkn,2.40
2022-01-13T00:46:00,pkn,1.20
2022-01-13T00:48:00,pkn,1.20
2022-01-13T00:50:00,pkn,1.20
2022-01-13T00:51:00,pkn,1.20
2022-01-13T00:53:00,pkn,1.20
2022-01-13T00:55:00,pkn,2.40
2022-01-13T00:57:00,pkn,1.20
2022-01-13T00:59:00,pkn,1.20
2022-01-13T01:00:00,pkn,3.60
2022-01-13T01:02:00,pkn,9.60
2022-01-13T01:03:00,pkn,4.80
2022-01-13T01:05:00,pkn,9.60
2022-01-13T01:06:00,pkn,4.80
2022-01-13T01:08:00,pkn,3.60
2022-01-13T01:10:00,pkn,2.40
2022-01-13T01:12:00,pkn,1.20
2022-01-13T01:14:00,pkn,2.40
2022-01-13T01:16:00,pkn,1.20
2022-01-13T01:18:00,pkn,1.20
2022-01-13T01:20:00,pkn,2.40
2022-01-13T01:22:00,pkn,1.20
2022-01-13T01:24:00,pkn,1.20
2022-01-13T01:25:00,pkn,1.20
2022-01-13T01:27:00,pkn,2.40
2022-01-13T01:30:00,pkn,2.40
2022-01-13T01:33:00,pkn,2.40
2022-01-13T01:35:00,pkn,1.20
2022-01-13T01:37:00,pkn,1.20
2022-01-13T01:39:00,pkn,1.20
2022-01-13T01:41:00,pkn,2.40
2022-01-13T01:43:00,pkn,1.20
2022-01-13T01:45:00,pkn,1.20
2022-01-13T01:46:00,pkn,1.20
2022-01-13T01:48:00,pkn,1.20
2022-01-13T01:49:00,pkn,1.20
2022-01-13T01:51:00,pkn,1.20
2022-01-13T01:53:00,pkn,1.20
2022-01-13T01:55:00,pkn,8.40
2022-01-13T01:57:00,pkn,9.60
2022-01-13T01:58:00,pkn,6.00
2022-01-13T01:59:00,pkn,4.80
2022-01-13T02:01:00,pkn,6.00
2022-01-13T02:03:00,pkn,2.40
2022-01-13T02:04:00,pkn,1.20
2022-01-13T02:06:00,pkn,1.20
2022-01-13T02:07:00,pkn,1.20
2022-01-13T02:09:00,pkn,1.20
2022-01-13T02:11:00,pkn,2.40
2022-01-13T02:13:00,pkn,1.20
2022-01-13T02:15:00,pkn,1.20
2022-01-13T02:17:00,pkn,2.40
2022-01-13T02:20:00,pkn,2.40
2022-01-13T02:22:00,pkn,1.20
2022-01-13T02:24:00,pkn,1.20
2022-01-13T02:25:00,pkn,1.20
2022-01-13T02:26:00,pkn,1.20
2022-01-13T02:28:00,pkn,1.20
2022-01-13T02:30:00,pkn,1.20
2022-01-13T02:31:00,pkn,1.20
2022-01-13T02:33:00,pkn,1.20
2022-01-13T02:34:00,pkn,1.20
2022-01-13T02:36:00,pkn,1.20
2022-01-13T02:37:00,pkn,1.20
2022-01-13T02:39:00,pkn,1.20
2022-01-13T02:41:00,pkn,1.20
2022-01-13T02:42:00,pkn,1.20
2022-01-13T02:45:00,pkn,2.40
2022-01-13T02:47:00,pkn,1.20
2022-01-13T02:48:00,pkn,1.20
2022-01-13T02:50:00,pkn,1.20
2022-01-13T02:52:00,pkn,1.20
2022-01-13T02:54:00,pkn,2.40
2022-01-13T02:56:00,pkn,1.20
2022-01-13T02:59:00,pkn,2.40
2022-01-13T03:01:00,pkn,1.20
2022-01-13T03:03:00,pkn,4.80
2022-01-13T03:04:00,pkn,6.00
2022-01-13T03:06:00,pkn,9.60
2022-01-13T03:07:00,pkn,3.60
2022-01-13T03:09:00,pkn,10.80
2022-01-13T03:11:00,pkn,2.40
2022-01-13T03:14:00,pkn,2.40
2022-01-13T03:16:00,pkn,1.20
2022-01-13T03:18:00,pkn,1.20
2022-01-13T03:20:00,pkn,2.40
2022-01-13T03:22:00,pkn,1.20
2022-01-13T03:24:00,pkn,1.20
2022-01-13T03:25:00,pkn,1.20
2022-01-13T03:29:00,pkn,3.60
2022-01-13T03:31:00,pkn,1.20
2022-01-13T03:33:00,pkn,1.20
2022-01-13T03:35:00,pkn,1.20
2022-01-13T03:38:00,pkn,1.20
2022-01-13T03:40:00,pkn,2.40
2022-01-13T03:43:00,pkn,1.20
2022-01-13T03:45:00,pkn,1.20
2022-01-13T03:47:00,pkn,1.20
2022-01-13T03:48:00,pkn,1.20
2022-01-13T03:50:00,pkn,1.20
2022-01-13T03:52:00,pkn,1.20
2022-01-13T03:54:00,pkn,1.20
2022-01-13T03:55:00,pkn,1.20
2022-01-13T03:57:00,pkn,1.20
2022-01-13T03:58:00,pkn,1.20
2022-01-13T04:00:00,pkn,1.20
2022-01-13T04:02:00,pkn,1.20
2022-01-13T04:04:00,pkn,1.20
2022-01-13T04:07:00,pkn,1.20
2022-01-13T04:08:00,pkn,1.20
2022-01-13T04:10:00,pkn,1.20
2022-01-13T04:13:00,pkn,1.20
2022-01-13T04:15:00,pkn,1.20
2022-01-13T04:16:00,pkn,1.20
2022-01-13T04:18:00,pkn,1.20
2022-01-13T04:20:00,pkn,1.20
2022-01-13T04:23:00,pkn,1.20
2022-01-13T04:24:00,pkn,1.20
2022-01-13T04:26:00,pkn,1.20
2022-01-13T04:28:00,pkn,1.20
2022-01-13T04:30:00,pkn,1.20
2022-01-13T04:33:00,pkn,1.20
2022-01-13T04:35:00,pkn,8.40
2022-01-13T04:37:00,pkn,9.60
2022-01-13T04:39:00,pkn,9.60
2022-01-13T04:41:00,pkn,4.80
2022-01-13T04:42:00,pkn,1.20
2022-01-13T04:44:00,pkn,1.20
2022-01-13T04:46:00,pkn,1.20
2022-01-13T04:47:00,pkn,1.20
2022-01-13T04:50:00,pkn,1.20
2022-01-13T04:51:00,pkn,1.20
2022-01-13T04:53:00,pkn,1.20
2022-01-13T04:55:00,pkn,1.20
2022-01-13T04:57:00,pkn,1.20
2022-01-13T05:00:00,pkn,1.20
2022-01-13T05:02:00,pkn,1.20
2022-01-13T05:04:00,pkn,1.20
2022-01-13T05:06:00,pkn,1.20
2022-01-13T05:08:00,pkn,1.20
2022-01-13T05:11:00,pkn,1.20
2022-01-13T05:13:00,pkn,1.20
2022-01-13T05:15:00,pkn,1.20
2022-01-13T05:17:00,pkn,1.20
2022-01-13T05:20:00,pkn,1.20
2022-01-13T05:21:00,pkn,1.20
2022-01-13T05:24:00,pkn,1.20
2022-01-13T05:26:00,pkn,1.20
2022-01-13T05:28:00,pkn,1.20
2022-01-13T05:30:00,pkn,1.20
2022-01-13T05:33:00,pkn,2.40
2022-01-13T05:35:00,pkn,1.20
2022-01-13T05:37:00,pkn,1.20
2022-01-13T05:40:00,pkn,1.20
2022-01-13T05:42:00,pkn,2.40
2022-01-13T05:45:00,pkn,1.20
2022-01-13T05:47:00,pkn,1.20
2022-01-13T05:49:00,pkn,1.20
2022-01-13T05:51:00,pkn,1.20
2022-01-13T05:53:00,pkn,1.20
2022-01-13T05:55:00,pkn,1.20
2022-01-13T05:57:00,pkn,1.20
2022-01-13T05:59:00,pkn,1.20
2022-01-13T06:02:00,pkn,1.20
2022-01-13T06:04:00,pkn,1.20
2022-01-13T06:06:00,pkn,1.20
2022-01-13T06:08:00,pkn,1.20
2022-01-13T06:09:00,pkn,1.20
2022-01-13T06:11:00,pkn,1.20
2022-01-13T06:13:00,pkn,1.20
2022-01-13T06:15:00,pkn,1.20
2022-01-13T06:17:00,pkn,1.20
2022-01-13T06:18:00,pkn,1.20
2022-01-13T06:20:00,pkn,1.20
2022-01-13T06:22:00,pkn,1.20
2022-01-13T06:24:00,pkn,1.20
2022-01-13T06:26:00,pkn,7.20
2022-01-13T06:27:00,pkn,4.80
2022-01-13T06:29:00,pkn,9.60
2022-01-13T06:31:00,pkn,8.40
2022-01-13T06:33:00,pkn,1.20
2022-01-13T06:35:00,pkn,1.20
2022-01-13T06:37:00,pkn,1.20
2022-01-13T06:40:00,pkn,1.20
2022-01-13T06:42:00,pkn,1.20
2022-01-13T06:44:00,pkn,1.20
2022-01-13T06:45:00,pkn,1.20
2022-01-13T06:49:00,pkn,1.20
2022-01-13T06:51:00,pkn,1.20
2022-01-13T06:52:00,pkn,1.20
2022-01-13T06:55:00,pkn,1.20
2022-01-13T06:56:00,pkn,1.20
2022-01-13T06:58:00,pkn,1.20
2022-01-13T06:59:00,pkn,1.20
2022-01-13T07:01:00,pkn,1.20
2022-01-13T07:03:00,pkn,1.20
2022-01-13T07:05:00,pkn,1.20
2022-01-13T07:07:00,pkn,1.20
2022-01-13T07:09:00,pkn,1.20
2022-01-13T07:10:00,pkn,1.20
2022-01-13T07:12:00,pkn,1.20
2022-01-13T07:15:00,pkn,2.40
2022-01-13T07:17:00,pkn,1.20
2022-01-13T07:21:00,pkn,1.20
2022-01-13T07:22:00,pkn,1.20
2022-01-13T07:25:00,pkn,1.20
2022-01-13T07:28:00,pkn,1.20
2022-01-13T07:29:00,pkn,1.20
2022-01-13T07:31:00,pkn,1.20
2022-01-13T07:34:00,pkn,1.20
2022-01-13T07:36:00,pkn,1.20
2022-01-13T07:38:00,pkn,1.20
2022-01-13T07:40:00,pkn,1.20
2022-01-13T07:42:00,pkn,1.20
2022-01-13T07:44:00,pkn,1.20
2022-01-13T07:46:00,pkn,1.20
2022-01-13T07:48:00,pkn,1.20
2022-01-13T07:50:00,pkn,1.20
2022-01-13T07:53:00,pkn,1.20
2022-01-13T07:55:00,pkn,1.20
2022-01-13T07:57:00,pkn,1.20
2022-01-13T07:59:00,pkn,1.20
2022-01-13T08:03:00,pkn,1.20
2022-01-13T08:04:00,pkn,1.20
2022-01-13T08:06:00,pkn,1.20
2022-01-13T08:08:00,pkn,1.20
2022-01-13T08:10:00,pkn,1.20
2022-01-13T08:13:00,pkn,1.20
2022-01-13T08:15:00,pkn,1.20
2022-01-13T08:17:00,pkn,1.20
2022-01-13T08:20:00,pkn,1.20
2022-01-13T08:22:00,pkn,1.20
2022-01-13T08:25:00,pkn,1.20
2022-01-13T08:27:00,pkn,4.80
2022-01-13T08:29:00,pkn,9.60
2022-01-13T08:31:00,pkn,9.60
2022-01-13T08:32:00,pkn,4.80
2022-01-13T08:34:00,pkn,4.80
2022-01-13T08:36:00,pkn,1.20
2022-01-13T08:38:00,pkn,2.40
2022-01-13T08:40:00,pkn,1.20
2022-01-13T08:43:00,pkn,1.20
2022-01-13T08:44:00,pkn,1.20
2022-01-13T08:46:00,pkn,1.20
2022-01-13T08:49:00,pkn,1.20
2022-01-13T08:51:00,pkn,1.20
2022-01-13T08:53:00,pkn,1.20
2022-01-13T08:55:00,pkn,1.20
2022-01-13T08:57:00,pkn,2.40
2022-01-13T08:59:00,pkn,1.20
2022-01-13T09:02:00,pkn,1.20
2022-01-13T09:03:00,pkn,1.20
2022-01-13T09:04:00,pkn,1.20
2022-01-13T09:06:00,pkn,1.20
2022-01-13T09:09:00,pkn,1.20
2022-01-13T09:11:00,pkn,2.40
2022-01-13T09:13:00,pkn,1.20
2022-01-13T09:16:00,pkn,1.20
2022-01-13T09:18:00,pkn,1.20
2022-01-13T09:20:00,pkn,1.20
2022-01-13T09:21:00,pkn,1.20
2022-01-13T09:23:00,pkn,1.20
2022-01-13T09:25:00,pkn,1.20
2022-01-13T09:28:00,pkn,1.20
2022-01-13T09:30:00,pkn,1.20
2022-01-13T09:32:00,pkn,1.20
2022-01-13T09:33:00,pkn,1.20
2022-01-13T09:35:00,pkn,1.20
2022-01-13T09:37:00,pkn,1.20
2022-01-13T09:40:00,pkn,9.60
2022-01-13T09:42:00,pkn,9.60
2022-01-13T09:43:00,pkn,3.60
2022-01-13T09:45:00,pkn,10.80
2022-01-13T09:47:00,pkn,1.20
2022-01-13T09:49:00,pkn,1.20
2022-01-13T09:51:00,pkn,1.20
2022-01-13T09:53:00,pkn,1.20
2022-01-13T09:54:00,pkn,1.20
2022-01-13T09:56:00,pkn,1.20
2022-01-13T09:58:00,pkn,1.20
2022-01-13T10:00:00,pkn,1.20
2022-01-13T10:01:00,pkn,1.20
2022-01-13T10:03:00,pkn,1.20
2022-01-13T10:05:00,pkn,1.20
2022-01-13T10:07:00,pkn,1.20
2022-01-13T10:09:00,pkn,1.20
2022-01-13T10:11:00,pkn,1.20
2022-01-13T10:13:00,pkn,1.20
2022-01-13T10:15:00,pkn,1.20
2022-01-13T10:19:00,pkn,1.20
2022-01-13T10:21:00,pkn,1.20
2022-01-13T10:22:00,pkn,1.20
2022-01-13T10:24:00,pkn,1.20
2022-01-13T10:26:00,pkn,1.20
2022-01-13T10:29:00,pkn,4.80
2022-01-13T10:31:00,pkn,9.60
2022-01-13T10:33:00,pkn,9.60
2022-01-13T10:34:00,pkn,3.60
2022-01-13T10:35:00,pkn,3.60
2022-01-13T10:38:00,pkn,1.20
2022-01-13T10:40:00,pkn,1.20
2022-01-13T10:41:00,pkn,1.20
2022-01-13T10:43:00,pkn,1.20
2022-01-13T10:45:00,pkn,1.20
2022-01-13T10:48:00,pkn,1.20
2022-01-13T10:50:00,pkn,1.20
2022-01-13T10:53:00,pkn,1.20
2022-01-13T10:55:00,pkn,1.20
2022-01-13T10:56:00,pkn,1.20
2022-01-13T11:00:00,pkn,1.20
2022-01-13T11:02:00,pkn,1.20
2022-01-13T11:03:00,pkn,1.20
2022-01-13T11:06:00,pkn,1.20
2022-01-13T11:07:00,pkn,1.20
2022-01-13T11:09:00,pkn,1.20
2022-01-13T11:10:00,pkn,1.20
2022-01-13T11:12:00,pkn,3.60
2022-01-13T11:14:00,pkn,2.40
2022-01-13T11:16:00,pkn,1.20
2022-01-13T11:18:00,pkn,1.20
2022-01-13T11:21:00,pkn,2.40
2022-01-13T11:23:00,pkn,1.20
2022-01-13T11:25:00,pkn,1.20
2022-01-13T11:28:00,pkn,2.40
2022-01-13T11:31:00,pkn,1.20
2022-01-13T11:32:00,pkn,1.20
2022-01-13T11:34:00,pkn,1.20
2022-01-13T11:36:00,pkn,2.40
2022-01-13T11:37:00,pkn,4.80
2022-01-13T11:39:00,pkn,9.60
2022-01-13T11:40:00,pkn,3.60
2022-01-13T11:42:00,pkn,9.60
2022-01-13T11:44:00,pkn,7.20
2022-01-13T11:46:00,pkn,1.20
2022-01-13T11:47:00,pkn,1.20
2022-01-13T11:49:00,pkn,1.20
2022-01-13T11:53:00,pkn,8.40
2022-01-13T11:54:00,pkn,6.00
2022-01-13T11:55:00,pkn,3.60
2022-01-13T11:57:00,pkn,9.60
2022-01-13T11:59:00,pkn,9.60
2022-01-13T12:01:00,pkn,8.40
2022-01-13T12:02:00,pkn,4.80
2022-01-13T12:03:00,pkn,4.80
2022-01-13T12:04:00,pkn,3.60
2022-01-13T12:06:00,pkn,9.60
2022-01-13T12:08:00,pkn,9.60
2022-01-13T12:09:00,pkn,4.80
2022-01-13T12:11:00,pkn,6.00
2022-01-13T12:13:00,pkn,1.20
2022-01-13T12:15:00,pkn,1.20
2022-01-13T12:16:00,pkn,1.20
2022-01-13T12:18:00,pkn,1.20
2022-01-13T12:20:00,pkn,1.20
2022-01-13T12:22:00,pkn,1.20
2022-01-13T12:24:00,pkn,3.60
2022-01-13T12:26:00,pkn,10.80
2022-01-13T12:27:00,pkn,3.60
2022-01-13T12:28:00,pkn,2.40
2022-01-13T12:29:00,pkn,8.40
2022-01-13T12:30:00,pkn,4.80
2022-01-13T12:32:00,pkn,9.60
2022-01-13T12:34:00,pkn,3.60
2022-01-13T12:36:00,pkn,1.20
2022-01-13T12:37:00,pkn,1.20
2022-01-13T12:38:00,pkn,1.20
2022-01-13T12:40:00,pkn,1.20
2022-01-13T12:43:00,pkn,3.60
2022-01-13T12:45:00,pkn,9.60
2022-01-13T12:46:00,pkn,3.60
2022-01-13T12:48:00,pkn,9.60
2022-01-13T12:50:00,pkn,9.60
2022-01-13T12:52:00,pkn,9.60
2022-01-13T12:54:00,pkn,8.40
2022-01-13T12:56:00,pkn,9.60
2022-01-13T12:58:00,pkn,3.60
2022-01-13T13:00:00,pkn,1.20
2022-01-13T13:02:00,pkn,1.20
2022-01-13T13:03:00,pkn,1.20
2022-01-13T13:06:00,pkn,2.40
2022-01-13T13:08:00,pkn,1.20
2022-01-13T13:10:00,pkn,1.20
2022-01-13T13:12:00,pkn,6.00
2022-01-13T13:14:00,pkn,9.60
2022-01-13T13:16:00,pkn,9.60
2022-01-13T13:17:00,pkn,3.60
2022-01-13T13:19:00,pkn,9.60
2022-01-13T13:21:00,pkn,4.80
2022-01-13T13:23:00,pkn,1.20
2022-01-13T13:25:00,pkn,1.20
2022-01-13T13:27:00,pkn,1.20
2022-01-13T13:29:00,pkn,1.20
2022-01-13T13:31:00,pkn,1.20
2022-01-13T13:33:00,pkn,1.20
2022-01-13T13:35:00,pkn,1.20
2022-01-13T13:37:00,pkn,1.20
2022-01-13T13:40:00,pkn,1.20
2022-01-13T13:42:00,pkn,4.80
2022-01-13T13:43:00,pkn,6.00
2022-01-13T13:45:00,pkn,8.40
2022-01-13T13:46:00,pkn,4.80
2022-01-13T13:48:00,pkn,9.60
2022-01-13T13:50:00,pkn,6.00
2022-01-13T13:52:00,pkn,1.20
2022-01-13T13:54:00,pkn,1.20
2022-01-13T13:58:00,pkn,2.40
2022-01-13T13:59:00,pkn,1.20
2022-01-13T14:01:00,pkn,2.40
2022-01-13T14:03:00,pkn,3.60
2022-01-13T14:05:00,pkn,1.20
2022-01-13T14:07:00,pkn,2.40
2022-01-13T14:09:00,pkn,1.20
2022-01-13T14:11:00,pkn,1.20
2022-01-13T14:13:00,pkn,1.20
2022-01-13T14:14:00,pkn,1.20
2022-01-13T14:16:00,pkn,1.20
2022-01-13T14:18:00,pkn,1.20
2022-01-13T14:20:00,pkn,8.40
2022-01-13T14:22:00,pkn,9.60
2022-01-13T14:23:00,pkn,6.00
2022-01-13T14:25:00,pkn,8.40
2022-01-13T14:27:00,pkn,7.20
2022-01-13T14:29:00,pkn,2.40
2022-01-13T14:32:00,pkn,2.40
2022-01-13T14:34:00,pkn,2.40
2022-01-13T14:35:00,pkn,2.40
2022-01-13T14:37:00,pkn,2.40
2022-01-13T14:39:00,pkn,2.40
2022-01-13T14:40:00,pkn,1.20
2022-01-13T14:42:00,pkn,2.40
2022-01-13T14:44:00,pkn,3.60
2022-01-13T14:46:00,pkn,4.80
2022-01-13T14:47:00,pkn,2.40
2022-01-13T14:49:00,pkn,4.80
2022-01-13T14:50:00,pkn,2.40
2022-01-13T14:52:00,pkn,2.40
2022-01-13T14:54:00,pkn,1.20
2022-01-13T14:56:00,pkn,1.20
2022-01-13T14:58:00,pkn,2.40
2022-01-13T15:00:00,pkn,2.40
2022-01-13T15:03:00,pkn,2.40
2022-01-13T15:05:00,pkn,9.60
2022-01-13T15:07:00,pkn,10.80
2022-01-13T15:09:00,pkn,10.80
2022-01-13T15:11:00,pkn,8.40
2022-01-13T15:13:00,pkn,2.40
2022-01-13T15:15:00,pkn,2.40
2022-01-13T15:16:00,pkn,1.20
2022-01-13T15:18:00,pkn,1.20
2022-01-13T15:19:00,pkn,1.20
2022-01-13T15:21:00,pkn,1.20
2022-01-13T15:23:00,pkn,2.40
2022-01-13T15:24:00,pkn,1.20
2022-01-13T15:25:00,pkn,1.20
2022-01-13T15:27:00,pkn,1.20
2022-01-13T15:28:00,pkn,1.20
2022-01-13T15:29:00,pkn,1.20
2022-01-13T15:31:00,pkn,2.40
2022-01-13T15:32:00,pkn,1.20
2022-01-13T15:34:00,pkn,1.20
2022-01-13T15:35:00,pkn,1.20
2022-01-13T15:37:00,pkn,1.20
2022-01-13T15:38:00,pkn,1.20
2022-01-13T15:40:00,pkn,2.40
2022-01-13T15:42:00,pkn,1.20
2022-01-13T15:44:00,pkn,1.20
2022-01-13T15:45:00,pkn,1.20
2022-01-13T15:47:00,pkn,1.20
2022-01-13T15:48:00,pkn,1.20
2022-01-13T15:50:00,pkn,2.40
2022-01-13T15:53:00,pkn,2.40
2022-01-13T15:56:00,pkn,8.40
2022-01-13T15:58:00,pkn,10.80
2022-01-13T16:00:00,pkn,9.60
2022-01-13T16:02:00,pkn,8.40
2022-01-13T16:04:00,pkn,1.20
2022-01-13T16:06:00,pkn,2.40
2022-01-13T16:08:00,pkn,1.20
2022-01-13T16:10:00,pkn,1.20
2022-01-13T16:12:00,pkn,1.20
2022-01-13T16:13:00,pkn,1.20
2022-01-13T16:14:00,pkn,1.20
2022-01-13T16:16:00,pkn,1.20
2022-01-13T16:17:00,pkn,1.20
2022-01-13T16:19:00,pkn,1.20
2022-01-13T16:21:00,pkn,1.20
2022-01-13T16:23:00,pkn,2.40
2022-01-13T16:25:00,pkn,1.20
2022-01-13T16:26:00,pkn,1.20
2022-01-13T16:28:00,pkn,1.20
2022-01-13T16:29:00,pkn,1.20
2022-01-13T16:31:00,pkn,2.40
2022-01-13T16:32:00,pkn,1.20
2022-01-13T16:34:00,pkn,1.20
2022-01-13T16:36:00,pkn,1.20
2022-01-13T16:38:00,pkn,2.40
2022-01-13T16:40:00,pkn,1.20
2022-01-13T16:43:00,pkn,2.40
2022-01-13T16:45:00,pkn,1.20
2022-01-13T16:47:00,pkn,1.20
2022-01-13T16:48:00,pkn,1.20
2022-01-13T16:49:00,pkn,1.20
2022-01-13T16:51:00,pkn,2.40
2022-01-13T16:53:00,pkn,4.80
2022-01-13T16:54:00,pkn,4.80
2022-01-13T16:56:00,pkn,10.80
2022-01-13T16:58:00,pkn,9.60
2022-01-13T16:59:00,pkn,4.80
2022-01-13T17:01:00,pkn,2.40
2022-01-13T17:03:00,pkn,1.20
2022-01-13T17:05:00,pkn,2.40
2022-01-13T17:07:00,pkn,1.20
2022-01-13T17:08:00,pkn,1.20
2022-01-13T17:10:00,pkn,2.40
2022-01-13T17:12:00,pkn,1.20
2022-01-13T17:13:00,pkn,1.20
2022-01-13T17:15:00,pkn,2.40
2022-01-13T17:18:00,pkn,2.40
2022-01-13T17:20:00,pkn,1.20
2022-01-13T17:22:00,pkn,2.40
2022-01-13T17:24:00,pkn,2.40
2022-01-13T17:26:00,pkn,1.20
2022-01-13T17:28:00,pkn,2.40
2022-01-13T17:29:00,pkn,1.20
2022-01-13T17:31:00,pkn,1.20
2022-01-13T17:33:00,pkn,2.40
2022-01-13T17:35:00,pkn,1.20
2022-01-13T17:36:00,pkn,1.20
2022-01-13T17:38:00,pkn,2.40
2022-01-13T17:40:00,pkn,1.20
2022-01-13T17:42:00,pkn,1.20
2022-01-13T17:43:00,pkn,1.20
2022-01-13T17:45:00,pkn,2.40
2022-01-13T17:47:00,pkn,1.20
2022-01-13T17:50:00,pkn,2.40
2022-01-13T17:52:00,pkn,8.40
2022-01-13T17:54:00,pkn,9.60
2022-01-13T17:56:00,pkn,9.60
2022-01-13T17:58:00,pkn,9.60
2022-01-13T18:00:00,pkn,3.60
2022-01-13T18:02:00,pkn,2.40
2022-01-13T18:03:00,pkn,1.20
2022-01-13T18:04:00,pkn,1.20
2022-01-13T18:06:00,pkn,1.20
2022-01-13T18:08:00,pkn,2.40
2022-01-13T18:09:00,pkn,1.20
2022-01-13T18:11:00,pkn,1.20
2022-01-13T18:12:00,pkn,1.20
2022-01-13T18:14:00,pkn,6.00
2022-01-13T18:15:00,pkn,3.60
2022-01-13T18:17:00,pkn,10.80
2022-01-13T18:19:00,pkn,9.60
2022-01-13T18:21:00,pkn,9.60
2022-01-13T18:23:00,pkn,2.40
2022-01-13T18:25:00,pkn,2.40
2022-01-13T18:27:00,pkn,1.20
2022-01-13T18:29:00,pkn,2.40
2022-01-13T18:31:00,pkn,1.20
2022-01-13T18:33:00,pkn,2.40
2022-01-13T18:35:00,pkn,1.20
2022-01-13T18:36:00,pkn,1.20
2022-01-13T18:38:00,pkn,2.40
2022-01-13T18:40:00,pkn,1.20
2022-01-13T18:41:00,pkn,1.20
2022-01-13T18:43:00,pkn,1.20
2022-01-13T18:45:00,pkn,2.40
2022-01-13T18:47:00,pkn,1.20
2022-01-13T18:49:00,pkn,2.40
2022-01-13T18:51:00,pkn,6.00
2022-01-13T18:53:00,pkn,9.60
2022-01-13T18:55:00,pkn,10.80
2022-01-13T18:57:00,pkn,9.60
2022-01-13T18:59:00,pkn,4.80
2022-01-13T19:00:00,pkn,1.20
2022-01-13T19:01:00,pkn,1.20
2022-01-13T19:03:00,pkn,4.80
2022-01-13T19:04:00,pkn,2.40
2022-01-13T19:06:00,pkn,6.00
2022-01-13T19:08:00,pkn,6.00
2022-01-13T19:10:00,pkn,6.00
2022-01-13T19:11:00,pkn,2.40
2022-01-13T19:13:00,pkn,6.00
2022-01-13T19:15:00,pkn,6.00
2022-01-13T19:16:00,pkn,1.20
2022-01-13T19:17:00,pkn,1.20
2022-01-13T19:19:00,pkn,2.40
2022-01-13T19:21:00,pkn,2.40
2022-01-13T19:22:00,pkn,1.20
2022-01-13T19:25:00,pkn,2.40
2022-01-13T19:26:00,pkn,1.20
2022-01-13T19:28:00,pkn,2.40
2022-01-13T19:29:00,pkn,1.20
2022-01-13T19:31:00,pkn,1.20
2022-01-13T19:33:00,pkn,2.40
2022-01-13T19:35:00,pkn,2.40
2022-01-13T19:38:00,pkn,2.40
2022-01-13T19:40:00,pkn,4.80
2022-01-13T19:42:00,pkn,9.60
2022-01-13T19:44:00,pkn,9.60
2022-01-13T19:46:00,pkn,10.80
2022-01-13T19:48:00,pkn,3.60
2022-01-13T19:49:00,pkn,1.20
2022-01-13T19:51:00,pkn,2.40
2022-01-13T19:53:00,pkn,1.20
2022-01-13T19:54:00,pkn,1.20
2022-01-13T19:56:00,pkn,2.40
2022-01-13T19:57:00,pkn,1.20
2022-01-13T19:59:00,pkn,4.80
2022-01-13T20:01:00,pkn,3.60
2022-01-13T20:03:00,pkn,2.40
2022-01-13T20:04:00,pkn,1.20
2022-01-13T20:06:00,pkn,2.40
2022-01-13T20:08:00,pkn,2.40
2022-01-13T20:10:00,pkn,1.20
2022-01-13T20:12:00,pkn,2.40
2022-01-13T20:14:00,pkn,2.40
2022-01-13T20:15:00,pkn,1.20
2022-01-13T20:17:00,pkn,2.40
2022-01-13T20:19:00,pkn,2.40
2022-01-13T20:21:00,pkn,8.40
2022-01-13T20:22:00,pkn,4.80
2022-01-13T20:23:00,pkn,6.00
2022-01-13T20:25:00,pkn,10.80
2022-01-13T20:26:00,pkn,4.80
2022-01-13T20:27:00,pkn,3.60
2022-01-13T20:29:00,pkn,2.40
2022-01-13T20:30:00,pkn,2.40
2022-01-13T20:32:00,pkn,4.80
2022-01-13T20:34:00,pkn,4.80
2022-01-13T20:35:00,pkn,2.40
2022-01-13T20:36:00,pkn,1.20
2022-01-13T20:37:00,pkn,1.20
2022-01-13T20:39:00,pkn,1.20
2022-01-13T20:41:00,pkn,2.40
2022-01-13T20:42:00,pkn,1.20
2022-01-13T20:44:00,pkn,2.40
2022-01-13T20:46:00,pkn,2.40
2022-01-13T20:48:00,pkn,2.40
2022-01-13T20:50:00,pkn,1.20
2022-01-13T20:52:00,pkn,2.40
2022-01-13T20:54:00,pkn,2.40
2022-01-13T20:56:00,pkn,1.20
2022-01-13T20:58:00,pkn,2.40
2022-01-13T21:00:00,pkn,2.40
2022-01-13T21:02:00,pkn,1.20
2022-01-13T21:03:00,pkn,2.40
2022-01-13T21:05:00,pkn,9.60
2022-01-13T21:07:00,pkn,10.80
2022-01-13T21:08:00,pkn,3.60
2022-01-13T21:09:00,pkn,6.00
2022-01-13T21:11:00,pkn,4.80
2022-01-13T21:14:00,pkn,2.40
2022-01-13T21:16:00,pkn,1.20
2022-01-13T21:18:00,pkn,2.40
2022-01-13T21:19:00,pkn,1.20
2022-01-13T21:21:00,pkn,1.20
2022-01-13T21:22:00,pkn,1.20
2022-01-13T21:23:00,pkn,1.20
2022-01-13T21:25:00,pkn,2.40
2022-01-13T21:28:00,pkn,2.40
2022-01-13T21:29:00,pkn,1.20
2022-01-13T21:31:00,pkn,1.20
2022-01-13T21:32:00,pkn,1.20
2022-01-13T21:34:00,pkn,3.60
2022-01-13T21:36:00,pkn,2.40
2022-01-13T21:39:00,pkn,2.40
2022-01-13T21:41:00,pkn,1.20
2022-01-13T21:42:00,pkn,1.20
2022-01-13T21:43:00,pkn,2.40
2022-01-13T21:44:00,pkn,2.40
2022-01-13T21:46:00,pkn,2.40
2022-01-13T21:47:00,pkn,1.20
2022-01-13T21:49:00,pkn,4.80
2022-01-13T21:50:00,pkn,2.40
2022-01-13T21:52:00,pkn,3.60
2022-01-13T21:54:00,pkn,3.60
2022-01-13T21:55:00,pkn,2.40
2022-01-13T21:57:00,pkn,3.60
2022-01-13T21:59:00,pkn,9.60
2022-01-13T22:00:00,pkn,7.20
2022-01-13T22:02:00,pkn,10.80
2022-01-13T22:03:00,pkn,6.00
2022-01-13T22:05:00,pkn,8.40
2022-01-13T22:06:00,pkn,1.20
2022-01-13T22:08:00,pkn,2.40
2022-01-13T22:09:00,pkn,1.20
2022-01-13T22:11:00,pkn,2.40
2022-01-13T22:12:00,pkn,2.40
2022-01-13T22:14:00,pkn,2.40
2022-01-13T22:15:00,pkn,1.20
2022-01-13T22:17:00,pkn,2.40
2022-01-13T22:19:00,pkn,3.60
2022-01-13T22:21:00,pkn,2.40
2022-01-13T22:23:00,pkn,2.40
2022-01-13T22:24:00,pkn,1.20
2022-01-13T22:26:00,pkn,6.00
2022-01-13T22:28:00,pkn,2.40
2022-01-13T22:30:00,pkn,2.40
2022-01-13T22:31:00,pkn,1.20
2022-01-13T22:33:00,pkn,1.20
2022-01-13T22:35:00,pkn,2.40
2022-01-13T22:37:00,pkn,1.20
2022-01-13T22:38:00,pkn,1.20
2022-01-13T22:40:00,pkn,2.40
2022-01-13T22:41:00,pkn,1.20
2022-01-13T22:43:00,pkn,2.40
2022-01-13T22:45:00,pkn,1.20
2022-01-13T22:46:00,pkn,1.20
2022-01-13T22:48:00,pkn,2.40
2022-01-13T22:50:00,pkn,2.40
2022-01-13T22:52:00,pkn,2.40
2022-01-13T22:54:00,pkn,6.00
2022-01-13T22:56:00,pkn,9.60
2022-01-13T22:58:00,pkn,10.80
2022-01-13T22:59:00,pkn,6.00
2022-01-13T23:01:00,pkn,9.60
2022-01-13T23:02:00,pkn,1.20
2022-01-13T23:04:00,pkn,2.40
2022-01-13T23:05:00,pkn,1.20
2022-01-13T23:07:00,pkn,1.20
2022-01-13T23:09:00,pkn,2.40
2022-01-13T23:11:00,pkn,2.40
2022-01-13T23:13:00,pkn,2.40
2022-01-13T23:14:00,pkn,1.20
2022-01-13T23:16:00,pkn,2.40
2022-01-13T23:18:00,pkn,2.40
2022-01-13T23:19:00,pkn,1.20
2022-01-13T23:21:00,pkn,2.40
2022-01-13T23:23:00,pkn,9.60
2022-01-13T23:24:00,pkn,4.80
2022-01-13T23:26:00,pkn,10.80
2022-01-13T23:27:00,pkn,3.60
2022-01-13T23:29:00,pkn,10.80
2022-01-13T23:30:00,pkn,4.80
2022-01-13T23:32:00,pkn,2.40
2022-01-13T23:34:00,pkn,1.20
2022-01-13T23:35:00,pkn,1.20
2022-01-13T23:36:00,pkn,1.20
2022-01-13T23:38:00,pkn,1.20
2022-01-13T23:40:00,pkn,2.40
2022-01-13T23:42:00,pkn,1.20
2022-01-13T23:44:00,pkn,1.20
2022-01-13T23:45:00,pkn,1.20
2022-01-13T23:47:00,pkn,1.20
2022-01-13T23:48:00,pkn,1.20
2022-01-13T23:50:00,pkn,1.20
2022-01-13T23:51:00,pkn,1.20
2022-01-13T23:52:00,pkn,1.20
2022-01-13T23:54:00,pkn,4.80
2022-01-13T23:56:00,pkn,10.80
2022-01-13T23:57:00,pkn,4.80
2022-01-13T23:59:00,pkn,9.60
